Regional Weather Roundup
Issued by NWS Lake Charles, LA

Home | Current Version | Previous Version | Text Only | Print | Product List | Glossary On
Versions: 1 2 3 4 5 6 7 8 9 10 11 12 13 14 15 16 17 18 19 20 21 22 23 24 25 26
000
ASUS44 KLCH 270810
RWRLCH
REGIONAL WEATHER ROUNDUP
NATIONAL WEATHER SERVICE LAKE CHARLES LA
300 AM CDT FRI MAY 27 2016

Note: "fair" indicates few or no clouds below 12,000 feet with no
significant weather and/or obstructions to visibility.


ACROSS SOUTHEAST TEXAS

CITY           SKY/WX    TMP DP  RH WIND       PRES   REMARKS
BEAUMONT       LGT RAIN  72  70  93 NE7       29.85F
BEAUMONT CITY  RAIN      71  69  92 NE3       29.86F
ORANGE         CLOUDY    73  71  93 CALM      29.89F FOG
JASPER         CLOUDY    69  67  93 SE5       29.85F
$$

ACROSS CENTRAL LOUISIANA

CITY           SKY/WX    TMP DP  RH WIND       PRES   REMARKS
LEESVILLE      CLOUDY    71  69  94 S13       29.86F
FULLERTON      NOT AVBL
ALEXANDRIA INT CLOUDY    75  74  96 S12       29.85F
ESLER FIELD    LGT RAIN  77  73  87 S12G20    29.87F
DERIDDER       CLOUDY    72  70  95 SE3       29.90F
OAKDALE        CLOUDY    75  74  97 S5        29.89F
OPELOUSAS      FAIR      75  73  91 SE6       29.91F
$$

ACROSS SOUTHWEST AND SOUTH CENTRAL LOUISIANA

CITY           SKY/WX    TMP DP  RH WIND       PRES   REMARKS
SULPHUR        CLOUDY    79  76  90 SE10      29.89F
LAKE CHARLES   MOCLDY    76  74  93 SE8       29.88F
CHENNAULT INT  CLOUDY    75  74  96 SE7       29.88F
CAMERON PHI    PTSUNNY   79  75  89 S14G22    29.91F
DEQUINCY       DRIZZLE   70  70 100 CALM      29.89F
JENNINGS       FAIR      75  73  94 SE5       29.90F
LAFAYETTE      MOCLDY    77  74  90 CALM      29.92F
NEW IBERIA     CLOUDY    77  73  87 S7        29.93F
ABBEVILLE      PTSUNNY   77  74  91 S9        29.92F
PATTERSON      CLOUDY    76  72  87 S5        29.94F
SALT POINT       N/A     78  72  81 SE5       29.93F
$$

SELECTED SITES ACROSS THE REGION

CITY           SKY/WX    TMP DP  RH WIND       PRES   REMARKS
HOUSTON BUSH   CLOUDY    70  68  93 E10       29.84F
HOUSTON HOBBY  CLOUDY    74  72  93 E6        29.81F
GALVESTON      CLOUDY    79  78  97 SE17      29.83F
COLLEGE STAT   TSTM      67  66  97 SE12      29.84F FOG
CONROE         LGT RAIN  69  66  90 CALM        N/A
HUNTSVILLE     TSTM      68  64  87 E5        29.90S VSB 1/2
LUFKIN         LGT RAIN  70  65  84 S16       29.79F
SHREVEPORT     CLOUDY    71  69  93 W6        29.83R
MONROE         CLOUDY    76  72  87 S8        29.86F
NATCHEZ MS     CLOUDY    75  70  83 S15       29.91S
BATON ROUGE    CLOUDY    77  71  82 S8        29.94F
N.O. INTL ARPT CLOUDY    78  72  81 SE9       29.96F
SLIDELL        CLOUDY    78  72  81 S9        29.97F
$$

MARINE REPORTS

STATION/POSITION TIME  SKY/WX   TEMP    WIND        PRES    VSBY
                                AIR SEA DIR/SP/G
                 (UTC)          (F)     (DEG/KT/KT) (MB)    (MI)
BUOY 30 S HIGH I 0750            80 80  140/ 16/ 17 1009.8F
WVE H/P(F/S)=  5/ 7

SEA RIM ST PARK  0800            79     150/ 17/ 22 1011.1F
PORT ARTHUR      0700               79  150/  8/ 11 1012.6F
SABINE PASS N    0700            79 81  160/  9/ 14 1013.9F
TEXAS POINT      NOT AVBL
CALCASIEU PASS   0700            79 81  170/ 13/ 17 1011.9F
LK CHARLES BEACH 0700            77 80              1013.5F
MARSH ISLAND     0700            84                   N/A
FRESH WATER LOCK 0700            79 82  150/ 13/ 17 1014.6F
AMERADA PASS     0700            78 75  140/  8/ 12 1014.1F
$$




USA.gov is the U.S. government's official web portal to all federal, state and local government web resources and services.